CZ-6A DEB

Satellite information

Favourite Embed

Satellite Type and Status

DEBRISIN ORBIT

Key statistics

Satellite CZ-6A DEB at a glance.

Uptime

273

Days in orbit

Revolutions

≈ 14.3

Per day

Orbit

LEO

Low Earth Orbit

Inclination

89.0

Latest

Satellite identification and parameters

Extended collection of information and parameters for CZ-6A DEB.

Object identification

Identified? True

Debris? True

Object name: CZ-6A DEB

International designator: 2024-140NR

Object number (NORAD): 61099

Object ID (CCSDS): 61099

Country: PEOPLES REPUBLIC OF CHINA (PRC)

Current information (Y/N): Y

RCS size: SMALL

Orbital parameters

Period: 101.005 minutes

Inclination: 89.0173 deg

SMA: 7184.395 km

Apoapsis: 830.335 km

Periapsis: 782.185 km

RAAN: 320.8556 deg

Eccentricy: 0.003351

Argument of periapsis: 47.3776 deg

Mean anomaly: 313.0234 deg

Mean motion: 14.25664975 rev/day

Mean motion (dot): 0.00004222 rev/day2

B* drag term: 0.0017654 1/REarth

Two-line elements (TLE)

Creation date: May 6, 2025, 3:54 a.m.

Reference frame: TEME

Reference center: EARTH

Epoch: May 5, 2025, 7:54 p.m. UTC

TLE line 0: 0 CZ-6A DEB

TLE line 1: 1 61099U 24140NR 25125.82960211 .00004222 00000-0 17654-2 0 9995

TLE line 2: 2 61099 89.0173 320.8556 0033510 47.3776 313.0234 14.25664975 35665

Live tracking on map

Real-time ground track for satellite CZ-6A DEB.

In-orbit conjunctions

A list of the most updated potential collisions computed for object CZ-6A DEB.

Target Orbit TCA Probability of collision Miss distance Type
CZ-4B R/B SSO 2025-04-23 04:26:33 0.0002170113 143.0 (m) ROCKET BODY
THOR ABLESTAR DEB LEO 2025-04-14 16:11:15 0.0001202877 216.0 (m) DEBRIS
FENGYUN 1C DEB SSO 2025-03-08 00:57:43 0.000129539 180.0 (m) DEBRIS
COSMOS 2150 LEO 2025-03-05 10:46:59 0.0002430407 909.0 (m) PAYLOAD
NOAA 16 DEB SSO 2025-03-02 08:47:01 0.0001341005 437.0 (m) DEBRIS

Associated space launch

18 Low Earth Orbit communication satellites with Ku, Q and V band payloads for the G60 constellation operated by Shanghai Spacecom Satellite Technology (SSST) with funding backed by the Shanghai local government. Initial constellation will consist of 1296 satellites by 2027 with long term plans to expand it to 12000 satellites.

CZ-6A DEB was lifted into orbit during the mission ‘Long March 6A | G60 Polar Group 01’, on board a Long March 6A space rocket.

The launch took place on Aug. 6, 2024, 6:42 a.m. from Launch Complex 9A.

For more information about the launch, click the button.

Launch to space Long March 6A | G60 Polar Group 01
Long March 6A | G60 Polar Group 01

Agency: N/A

Status: Launch Successful

Launch date: Aug. 6, 2024, 6:42 a.m. UTC

Rocket: Long March 6A

Launch pad: Launch Complex 9A

Location: Taiyuan Satellite Launch Center, People's Republic of China

...

Latest news about this satellite

News about space launch
Brightness of first Chinese broadband constellation satellites alarms astronomers

The first satellites of a Chinese broadband constellation are significantly brighter than those of Western systems, posing a new challenge for astronomers.

News about space launch
Chinese rocket stage breaks up into cloud of more than 700 pieces of space debris

HELSINKI — A Chinese Long March 6A rocket’s upper stage has fragmented into a cloud of over 700 pieces of space debris, adding to concerns about long-term orbital safety. China […]

News about space launch
China's Thousand Sails Megaconstellation Kicks Off with Dangerous Debris Field

China's Thousand Sails Megaconstellation Kicks Off with Dangerous Debris Field


Newsletter sign-up

Weekly statistics, charts and insights to help you stay on top of the space industry.